Location: Newark
(11.3000°S, 17.8000°E)
Time: 18:54:23
(UTC+00:00)

Hubble Space Telescope - Visible Passes

Search period start: 12 December 2019 00:00
Search period end: 22 December 2019 00:00
Orbit: 536 x 540 km, 28.5° (Epoch: 11 December)

Date Brightness Start Highest point End Pass type
(mag) Time Alt. Az. Time Alt. Az. Time Alt. Az.
12 Dec 3.7 17:33:25 10° SW 17:34:55 12° SSW 17:36:23 10° S visible
18 Dec 3.4 18:13:40 10° S 18:14:54 11° SSE 18:16:09 10° SSE visible
18 Dec 3.9 19:52:50 10° SW 19:53:23 13° SW 19:53:23 13° SW visible
19 Dec 3.3 18:02:26 10° SSW 18:04:28 13° SSE 18:06:30 10° SE visible
19 Dec 3.5 19:42:05 10° SW 19:43:15 18° SW 19:43:15 18° SW visible
20 Dec 3.1 17:51:25 10° SSW 17:54:00 16° SSE 17:56:37 10° ESE visible
20 Dec 3.0 19:31:23 10° SW 19:33:08 24° SW 19:33:08 24° SW visible
21 Dec 2.8 17:40:28 10° SSW 17:43:32 20° SSE 17:46:35 10° ESE visible
21 Dec 2.5 19:20:46 10° WSW 19:23:03 32° WSW 19:23:03 32° WSW visible
